Location: Dackenheim
(49.5215°N, 8.1854°E)
Time: 23:45:01
(UTC+00:00)

SL-14 R/B - Pass Details

Date: 19 May 2025
Orbit: 500 x 530 km, 82.4° (Epoch: 22 June)

Event Time Altitude Azimuth Distance (km) Brightness Sun altitude
Exits shadow 23:53:56 47° 127° (SE) 697 3.6 -20.2°
Maximum altitude 23:54:29 52° 95° (E) 655 3.6 -20.2°
Drops below altitude 10° 23:58:16 10° 19° (NNE) 1,771 7.1 -20.1°
Sets 00:00:28 0° 15° (NNE) 2,670 8.4 -20.0°
